{"data":{"norad_id":69780,"epoch":"2026-09-19T13:26:21.828768Z","epoch_age_seconds":107837,"freshness":"FRESH","line1":"1 69780U 26151T   26262.55997487  .00000350  00000+0  74948-4 0  9990","line2":"2 69780  51.8973 235.8619 0001229 102.5062 257.6038 14.79915960 11991","mean_motion":14.7991596,"eccentricity":0.0001229,"inclination_deg":51.8973,"raan_deg":235.8619,"arg_perigee_deg":102.5062,"mean_anomaly_deg":257.6038,"bstar":7.4948e-5,"rev_number":1199,"period_min":97.302822519733,"perigee_km":628.72817117149,"apogee_km":630.45067032572,"semimajor_km":7007.7264207486,"source":"CELESTRAK","updated_at":"2026-09-20T09:00:25.092960Z"}}